Location: ??????
(55.0357°N, 38.6195°E)
Time: 13:08:06
(UTC+00:00)

ADEOS II - Visible Passes

Search period start: 19 July 2024 00:00
Search period end: 29 July 2024 00:00
Orbit: 796 x 797 km, 98.7° (Epoch: 18 July)

Date Brightness Start Highest point End Pass type
(mag) Time Alt. Az. Time Alt. Az. Time Alt. Az.
19 Jul 2.3 00:00:21 10° NNE 00:05:38 76° ESE 00:10:53 10° SSW visible
19 Jul 2.8 23:32:55 10° NNE 23:38:02 48° E 23:43:06 10° S visible
20 Jul 3.5 23:05:39 10° NNE 23:10:19 31° E 23:14:56 10° SSE visible
21 Jul 4.1 22:38:39 10° NE 22:42:29 20° E 22:46:17 10° SE visible
22 Jul 2.1 00:17:28 10° NNE 00:22:46 83° WNW 00:28:01 10° SSW visible
22 Jul 4.5 22:12:19 10° ENE 22:14:32 12° E 22:16:43 10° ESE visible
22 Jul 2.4 23:49:58 10° NNE 23:55:12 64° ESE 00:00:25 10° S visible
23 Jul 3.1 23:22:35 10° NNE 23:27:33 41° E 23:32:30 10° SSE visible
24 Jul 3.8 22:55:24 10° NE 22:59:48 26° E 23:04:10 10° SSE visible
25 Jul 4.3 22:28:33 10° NE 22:31:55 17° E 22:35:15 10° SE visible
26 Jul 2.2 00:07:03 10° NNE 00:12:21 84° ESE 00:17:37 10° SSW visible
26 Jul 4.7 22:03:23 10° ENE 22:03:54 10° E 22:04:27 10° E visible
26 Jul 2.7 23:39:35 10° NNE 23:44:45 54° E 23:49:53 10° S visible
27 Jul 3.4 23:12:15 10° NNE 23:17:03 34° E 23:21:48 10° SSE visible
28 Jul 4.0 22:45:10 10° NE 22:49:14 22° E 22:53:17 10° SE visible
